STARLINK-1151 (45081 NORAD) Tracking and Keplerian Element Data

This shows tracking and keplerian element data for the satellite.

Feedback or suggestion? Click here.




ElementValue
Catalog45081
NameSTARLINK-1151
Epoch Orbit177
Epoch Day52.91667824
Epoch Year2020
RAAN119.4766
Inclination52.9966
Eccentricity0.000144
Argument of Perigee44.4732
Mean Anonmoly117.8132
Mean Motion15.73146337
Decay Rate0.00257826
L11 45081U 20006AP 20052.91667824 .00257826 00000-0 17893-2 0 9998
L22 45081 52.9966 119.4766 0001440 44.4732 117.8132 15.73146337 1772

Live tracking and technical data element details for STARLINK-1151 (NORAD 45081). STARLINK-1151 can be tracked NOW for your location showing map with azimuth and elevation plus other details from your city location.

Track the satellite on the map from your city or location and see movement details for azimuth, elevation, latitude, longitude, range, height, and movement on the map or in text.







IsCatalogInMostPopularTable: catalog: 45081, numindb: 7
Update: records affected: 1



GetName: 45081 STARLINK-1151

Hit Count: updated at: Wed, 26 Feb 2020 17:11:05 GMT